When you browse on this site, cookies collect data to enhance your experience and personalize the content and advertising you see.
Visit our Privacy Policy to learn more. By continuing to use the site, you agree to this use of cookies and data.
  • In Hungary
  • List of Countries
  • For 7 days
  • Water Temperature
  • Weather Map
  • News
  • Weather Widgets
  • user-avatar
    Login

    Hourly Weather Pasto

    Today, 28 March, Saturday

    Time Temperature Precipitation Wind Pressure Humidity
    00:00 +11°C° 0 mm 0 mps 546 mmHg 97%
    01:00 +11°C° 0 mm 0 mps 546 mmHg 97%
    02:00 +11°C° 0 mm 0 mps 546 mmHg 96%
    03:00 +11°C° 0 mm 0 mps 545 mmHg 96%
    04:00 +11°C° 0 mm 0 mps 545 mmHg 96%
    05:00 +11°C° 0.1 mm 0 mps 546 mmHg 95%
    06:00 +11°C° 0.1 mm 0 mps 546 mmHg 94%
    07:00 +11°C° 0 mm 0 mps 546 mmHg 93%
    08:00 +13°C° 0.2 mm 0 mps 547 mmHg 89%
    09:00 +15°C° 0.2 mm 1 mps 549 mmHg 85%
    10:00 +18°C° 0.2 mm 1 mps 550 mmHg 81%
    11:00 +18°C° 1 mm 1 mps 549 mmHg 83%
    12:00 +16°C° 1 mm 1 mps 549 mmHg 85%
    13:00 +16°C° 1 mm 1 mps 548 mmHg 87%
    14:00 +16°C° 1.2 mm 1 mps 547 mmHg 88%
    15:00 +16°C° 1.2 mm 1 mps 547 mmHg 89%
    16:00 +16°C° 1.2 mm 1 mps 547 mmHg 90%
    17:00 +15°C° 0.7 mm 1 mps 547 mmHg 93%
    18:00 +13°C° 0.7 mm 0 mps 546 mmHg 95%
    19:00 +12°C° 0.7 mm 0 mps 546 mmHg 98%
    20:00 +12°C° 0.1 mm 0 mps 547 mmHg 98%
    21:00 +11°C° 0.1 mm 0 mps 547 mmHg 98%
    22:00 +11°C° 0.1 mm 0 mps 547 mmHg 98%
    23:00 +11°C° 0 mm 0 mps 547 mmHg 97%

    Tomorrow, 30 March, Monday

    Time Temperature Precipitation Wind Pressure Humidity
    00:00 +11°C° 0 mm 1 mps 547 mmHg 95%
    01:00 +11°C° 0 mm 1 mps 546 mmHg 95%
    02:00 +10°C° 0 mm 1 mps 546 mmHg 95%
    03:00 +10°C° 0 mm 1 mps 546 mmHg 95%
    04:00 +10°C° 0 mm 1 mps 545 mmHg 94%
    05:00 +10°C° 0 mm 1 mps 546 mmHg 94%
    06:00 +10°C° 0 mm 1 mps 546 mmHg 93%
    07:00 +11°C° 0 mm 1 mps 547 mmHg 92%
    08:00 +12°C° 0 mm 1 mps 548 mmHg 87%
    09:00 +14°C° 0 mm 1 mps 549 mmHg 81%
    10:00 +16°C° 0 mm 1 mps 550 mmHg 76%
    11:00 +18°C° 0.4 mm 1 mps 550 mmHg 73%
    12:00 +18°C° 0.4 mm 2 mps 550 mmHg 70%
    13:00 +19°C° 0.4 mm 2 mps 550 mmHg 67%
    14:00 +18°C° 1.1 mm 2 mps 549 mmHg 75%
    15:00 +16°C° 1.1 mm 1 mps 548 mmHg 83%
    16:00 +15°C° 1.1 mm 1 mps 546 mmHg 91%
    17:00 +14°C° 0.7 mm 1 mps 546 mmHg 93%
    18:00 +14°C° 0.7 mm 1 mps 546 mmHg 95%
    19:00 +12°C° 0.7 mm 0 mps 546 mmHg 98%
    20:00 +12°C° 0.3 mm 0 mps 547 mmHg 98%
    21:00 +12°C° 0.3 mm 0 mps 547 mmHg 98%
    22:00 +11°C° 0.3 mm 0 mps 548 mmHg 98%
    23:00 +11°C° 0.3 mm 0 mps 547 mmHg 98%

    Day after tomorrow, 31 March, Tuesday

    Time Temperature Precipitation Wind Pressure Humidity
    00:00 +11°C° 0.3 mm 0 mps 547 mmHg 98%
    01:00 +11°C° 0.3 mm 0 mps 547 mmHg 98%
    02:00 +11°C° 0.1 mm 0 mps 546 mmHg 98%
    03:00 +11°C° 0.1 mm 0 mps 546 mmHg 98%
    04:00 +11°C° 0.1 mm 0 mps 546 mmHg 98%
    05:00 +11°C° 0.2 mm 0 mps 546 mmHg 97%
    06:00 +11°C° 0.2 mm 0 mps 546 mmHg 97%
    07:00 +11°C° 0.2 mm 0 mps 547 mmHg 97%
    08:00 +11°C° 0.3 mm 0 mps 547 mmHg 97%
    09:00 +12°C° 0.3 mm 0 mps 548 mmHg 96%
    10:00 +12°C° 0.3 mm 0 mps 548 mmHg 95%
    11:00 +14°C° 0.5 mm 1 mps 548 mmHg 93%
    12:00 +14°C° 0.5 mm 1 mps 548 mmHg 90%
    13:00 +15°C° 0.5 mm 1 mps 548 mmHg 87%
    14:00 +15°C° 1.1 mm 1 mps 547 mmHg 89%
    15:00 +15°C° 1.1 mm 1 mps 547 mmHg 90%
    16:00 +15°C° 1.1 mm 1 mps 546 mmHg 92%
    17:00 +14°C° 0.6 mm 1 mps 546 mmHg 94%
    18:00 +13°C° 0.6 mm 1 mps 546 mmHg 96%
    19:00 +11°C° 0.6 mm 0 mps 546 mmHg 98%
    20:00 +11°C° 0.2 mm 0 mps 547 mmHg 98%
    21:00 +11°C° 0.2 mm 0 mps 547 mmHg 98%
    22:00 +11°C° 0.2 mm 0 mps 547 mmHg 98%
    23:00 +11°C° 0.1 mm 0 mps 547 mmHg 98%

    31 March, Tuesday

    Time Temperature Precipitation Wind Pressure Humidity
    00:00 +11°C° 0.3 mm 0 mps 547 mmHg 98%
    01:00 +11°C° 0.3 mm 0 mps 547 mmHg 98%
    02:00 +11°C° 0.1 mm 0 mps 546 mmHg 98%
    03:00 +11°C° 0.1 mm 0 mps 546 mmHg 98%
    04:00 +11°C° 0.1 mm 0 mps 546 mmHg 98%
    05:00 +11°C° 0.2 mm 0 mps 546 mmHg 97%
    06:00 +11°C° 0.2 mm 0 mps 546 mmHg 97%
    07:00 +11°C° 0.2 mm 0 mps 547 mmHg 97%
    08:00 +11°C° 0.3 mm 0 mps 547 mmHg 97%
    09:00 +12°C° 0.3 mm 0 mps 548 mmHg 96%
    10:00 +12°C° 0.3 mm 0 mps 548 mmHg 95%
    11:00 +14°C° 0.5 mm 1 mps 548 mmHg 93%
    12:00 +14°C° 0.5 mm 1 mps 548 mmHg 90%
    13:00 +15°C° 0.5 mm 1 mps 548 mmHg 87%
    14:00 +15°C° 1.1 mm 1 mps 547 mmHg 89%
    15:00 +15°C° 1.1 mm 1 mps 547 mmHg 90%
    16:00 +15°C° 1.1 mm 1 mps 546 mmHg 92%
    17:00 +14°C° 0.6 mm 1 mps 546 mmHg 94%
    18:00 +13°C° 0.6 mm 1 mps 546 mmHg 96%
    19:00 +11°C° 0.6 mm 0 mps 546 mmHg 98%
    20:00 +11°C° 0.2 mm 0 mps 547 mmHg 98%
    21:00 +11°C° 0.2 mm 0 mps 547 mmHg 98%
    22:00 +11°C° 0.2 mm 0 mps 547 mmHg 98%
    23:00 +11°C° 0.1 mm 0 mps 547 mmHg 98%

    1 April, Wednesday

    Time Temperature Precipitation Wind Pressure Humidity
    00:00 +11°C° 0.1 mm 0 mps 546 mmHg 97%
    01:00 +11°C° 0.1 mm 0 mps 546 mmHg 97%
    02:00 +11°C° 0.1 mm 0 mps 546 mmHg 98%
    03:00 +11°C° 0.1 mm 0 mps 546 mmHg 98%
    04:00 +10°C° 0.1 mm 0 mps 545 mmHg 98%
    05:00 +11°C° 0.2 mm 0 mps 546 mmHg 98%
    06:00 +11°C° 0.2 mm 0 mps 546 mmHg 98%
    07:00 +11°C° 0.2 mm 0 mps 547 mmHg 98%
    08:00 +11°C° 0.5 mm 0 mps 547 mmHg 97%
    09:00 +12°C° 0.5 mm 0 mps 548 mmHg 96%
    10:00 +12°C° 0.5 mm 0 mps 548 mmHg 95%
    11:00 +14°C° 0.7 mm 1 mps 548 mmHg 93%
    12:00 +14°C° 0.7 mm 1 mps 548 mmHg 91%
    13:00 +15°C° 0.7 mm 1 mps 548 mmHg 89%
    14:00 +14°C° 1.1 mm 1 mps 547 mmHg 91%
    15:00 +14°C° 1.1 mm 1 mps 547 mmHg 92%
    16:00 +14°C° 1.1 mm 1 mps 546 mmHg 94%
    17:00 +13°C° 1 mm 1 mps 546 mmHg 95%
    18:00 +12°C° 1 mm 0 mps 546 mmHg 96%
    19:00 +11°C° 1 mm 0 mps 547 mmHg 97%
    20:00 +11°C° 0.5 mm 0 mps 547 mmHg 97%
    21:00 +11°C° 0.5 mm 0 mps 547 mmHg 97%
    22:00 +11°C° 0.5 mm 0 mps 548 mmHg 97%
    23:00 +11°C° 0.5 mm 0 mps 547 mmHg 97%

    2 April, Thursday

    Time Temperature Precipitation Wind Pressure Humidity
    00:00 +11°C° 0.5 mm 0 mps 547 mmHg 97%
    01:00 +11°C° 0.5 mm 0 mps 547 mmHg 96%
    02:00 +10°C° 0.1 mm 0 mps 547 mmHg 96%
    03:00 +10°C° 0.1 mm 0 mps 546 mmHg 96%
    04:00 +10°C° 0.1 mm 0 mps 546 mmHg 96%
    05:00 +10°C° 0 mm 0 mps 546 mmHg 95%
    06:00 +10°C° 0 mm 0 mps 547 mmHg 94%
    07:00 +10°C° 0 mm 0 mps 547 mmHg 94%
    08:00 +13°C° 0.2 mm 1 mps 549 mmHg 90%
    09:00 +15°C° 0.2 mm 1 mps 550 mmHg 86%
    10:00 +16°C° 0.2 mm 1 mps 551 mmHg 82%
    11:00 +16°C° 1.1 mm 1 mps 550 mmHg 85%
    12:00 +16°C° 1.1 mm 1 mps 549 mmHg 87%
    13:00 +15°C° 1.1 mm 1 mps 549 mmHg 90%
    14:00 +15°C° 1.4 mm 1 mps 548 mmHg 90%
    15:00 +15°C° 1.4 mm 1 mps 548 mmHg 90%
    16:00 +15°C° 1.4 mm 1 mps 547 mmHg 91%
    17:00 +14°C° 1 mm 1 mps 547 mmHg 93%
    18:00 +13°C° 1 mm 1 mps 547 mmHg 95%
    19:00 +12°C° 1 mm 1 mps 547 mmHg 98%
    20:00 +11°C° 0.4 mm 0 mps 548 mmHg 98%
    21:00 +11°C° 0.4 mm 0 mps 548 mmHg 98%
    22:00 +11°C° 0.4 mm 0 mps 548 mmHg 98%
    23:00 +11°C° 0.2 mm 0 mps 548 mmHg 97%
    Show more